Location: Dvur Kralove nad Labem
(50.4330°N, 15.8170°E)
Time: 17:02:23
(UTC+01:00)

ISS - Pass Details

Date: 10 November 2018
Orbit: 401 x 408 km, 51.6° (Epoch: 20 November)

Event Time Altitude Azimuth Distance (km) Brightness Sun altitude
Exits shadow 05:58:20 15° 269° (W) 1,189 -2.1 -10.4°
Maximum altitude 06:00:33 32° 211° (SSW) 714 -2.7 -10.0°
Drops below altitude 10° 06:03:31 10° 146° (SE) 1,460 -0.2 -9.6°
Sets 06:05:43 0° 136° (SE) 2,319 1.2 -9.2°
